• In Czech Republic
  • List of Countries
  • For 7 days
  • Water Temperature
  • Satellite Maps
  • Weather Map
  • Weather Widgets
  • user-avatar
    Login

    Hourly Weather Townsville

    Today, 22 August, Tuesday

    Time Temperature Precipitation Wind Pressure Humidity
    00:00 +17°C° 0 mm 2 mps 757 mmHg 88%
    01:00 +17°C° 0 mm 2 mps 757 mmHg 91%
    02:00 +17°C° 0 mm 2 mps 756 mmHg 91%
    03:00 +18°C° 0 mm 1 mps 756 mmHg 92%
    04:00 +18°C° 0 mm 1 mps 756 mmHg 93%
    05:00 +18°C° 0 mm 1 mps 756 mmHg 93%
    06:00 +18°C° 0 mm 1 mps 756 mmHg 93%
    07:00 +18°C° 0 mm 1 mps 757 mmHg 93%
    08:00 +21°C° 0 mm 1 mps 757 mmHg 80%
    09:00 +24°C° 0 mm 1 mps 757 mmHg 67%
    10:00 +28°C° 0 mm 1 mps 757 mmHg 51%
    11:00 +29°C° 0 mm 1 mps 756 mmHg 46%
    12:00 +31°C° 0 mm 2 mps 756 mmHg 41%
    13:00 +32°C° 0 mm 2 mps 755 mmHg 36%
    14:00 +31°C° 0 mm 2 mps 755 mmHg 40%
    15:00 +30°C° 0 mm 3 mps 755 mmHg 44%
    16:00 +29°C° 0 mm 4 mps 755 mmHg 48%
    17:00 +27°C° 0 mm 3 mps 755 mmHg 59%
    18:00 +24°C° 0 mm 3 mps 755 mmHg 71%
    19:00 +21°C° 0 mm 3 mps 755 mmHg 82%
    20:00 +21°C° 0 mm 3 mps 756 mmHg 82%
    21:00 +20°C° 0 mm 3 mps 756 mmHg 82%
    22:00 +20°C° 0 mm 3 mps 757 mmHg 82%
    23:00 +20°C° 0 mm 3 mps 757 mmHg 85%

    Tomorrow, 23 August, Wednesday

    Time Temperature Precipitation Wind Pressure Humidity
    00:00 +20°C° 0 mm 3 mps 757 mmHg 88%
    01:00 +20°C° 0 mm 3 mps 757 mmHg 90%
    02:00 +20°C° 0 mm 2 mps 757 mmHg 90%
    03:00 +20°C° 0 mm 2 mps 757 mmHg 90%
    04:00 +20°C° 0 mm 2 mps 756 mmHg 90%
    05:00 +20°C° 0 mm 2 mps 757 mmHg 89%
    06:00 +20°C° 0 mm 2 mps 757 mmHg 89%
    07:00 +20°C° 0 mm 2 mps 757 mmHg 88%
    08:00 +23°C° 0 mm 2 mps 757 mmHg 78%
    09:00 +25°C° 0 mm 3 mps 757 mmHg 69%
    10:00 +27°C° 0 mm 3 mps 757 mmHg 59%
    11:00 +28°C° 0 mm 3 mps 757 mmHg 54%
    12:00 +29°C° 0 mm 3 mps 756 mmHg 50%
    13:00 +30°C° 0 mm 3 mps 756 mmHg 45%
    14:00 +30°C° 0 mm 3 mps 755 mmHg 46%
    15:00 +29°C° 0 mm 3 mps 755 mmHg 48%
    16:00 +29°C° 0 mm 3 mps 755 mmHg 49%
    17:00 +26°C° 0 mm 3 mps 755 mmHg 59%
    18:00 +24°C° 0 mm 2 mps 755 mmHg 69%
    19:00 +21°C° 0 mm 2 mps 755 mmHg 79%
    20:00 +21°C° 0 mm 2 mps 756 mmHg 82%
    21:00 +20°C° 0 mm 2 mps 756 mmHg 85%
    22:00 +20°C° 0 mm 2 mps 756 mmHg 87%
    23:00 +20°C° 0 mm 2 mps 756 mmHg 89%

    Day after tomorrow, 24 August, Thursday

    Time Temperature Precipitation Wind Pressure Humidity
    00:00 +20°C° 0 mm 2 mps 756 mmHg 90%
    01:00 +19°C° 0 mm 2 mps 756 mmHg 92%
    02:00 +19°C° 0 mm 2 mps 755 mmHg 93%
    03:00 +19°C° 0 mm 2 mps 755 mmHg 93%
    04:00 +19°C° 0 mm 2 mps 755 mmHg 94%
    05:00 +19°C° 0 mm 2 mps 755 mmHg 93%
    06:00 +21°C° 0 mm 1 mps 756 mmHg 92%
    07:00 +21°C° 0 mm 1 mps 756 mmHg 91%
    08:00 +23°C° 0 mm 2 mps 756 mmHg 79%
    09:00 +25°C° 0 mm 2 mps 756 mmHg 67%
    10:00 +27°C° 0 mm 2 mps 756 mmHg 55%
    11:00 +29°C° 0 mm 2 mps 755 mmHg 50%
    12:00 +30°C° 0 mm 2 mps 755 mmHg 46%
    13:00 +31°C° 0 mm 2 mps 754 mmHg 41%
    14:00 +30°C° 0 mm 2 mps 753 mmHg 43%
    15:00 +30°C° 0 mm 2 mps 753 mmHg 44%
    16:00 +30°C° 0 mm 3 mps 752 mmHg 46%
    17:00 +27°C° 0 mm 3 mps 753 mmHg 56%
    18:00 +25°C° 0 mm 2 mps 753 mmHg 66%
    19:00 +23°C° 0 mm 2 mps 754 mmHg 76%
    20:00 +21°C° 0 mm 2 mps 754 mmHg 79%
    21:00 +21°C° 0 mm 2 mps 754 mmHg 82%
    22:00 +20°C° 0 mm 2 mps 755 mmHg 85%
    23:00 +21°C° 0 mm 1 mps 755 mmHg 86%

    25 August, Friday

    Time Temperature Precipitation Wind Pressure Humidity
    00:00 +21°C° 0 mm 1 mps 755 mmHg 88%
    01:00 +20°C° 0 mm 1 mps 754 mmHg 89%
    02:00 +20°C° 0 mm 1 mps 754 mmHg 86%
    03:00 +19°C° 0 mm 2 mps 754 mmHg 83%
    04:00 +18°C° 0 mm 2 mps 754 mmHg 80%
    05:00 +18°C° 0 mm 3 mps 755 mmHg 64%
    06:00 +18°C° 0 mm 4 mps 755 mmHg 49%
    07:00 +16°C° 0 mm 5 mps 755 mmHg 33%
    08:00 +20°C° 0 mm 5 mps 756 mmHg 32%
    09:00 +23°C° 0 mm 5 mps 756 mmHg 30%
    10:00 +26°C° 0 mm 5 mps 756 mmHg 29%
    11:00 +28°C° 0 mm 4 mps 755 mmHg 27%
    12:00 +30°C° 0 mm 3 mps 755 mmHg 26%
    13:00 +32°C° 0 mm 2 mps 754 mmHg 24%
    14:00 +31°C° 0 mm 3 mps 754 mmHg 25%
    15:00 +32°C° 0 mm 4 mps 753 mmHg 26%
    16:00 +32°C° 0 mm 5 mps 753 mmHg 27%
    17:00 +28°C° 0 mm 4 mps 754 mmHg 42%
    18:00 +25°C° 0 mm 4 mps 754 mmHg 57%
    19:00 +21°C° 0 mm 4 mps 755 mmHg 71%
    20:00 +20°C° 0.1 mm 4 mps 755 mmHg 78%
    21:00 +20°C° 0.1 mm 3 mps 756 mmHg 85%
    22:00 +19°C° 0.1 mm 3 mps 757 mmHg 92%
    23:00 +19°C° 0.1 mm 3 mps 756 mmHg 93%

    26 August, Saturday

    Time Temperature Precipitation Wind Pressure Humidity
    00:00 +19°C° 0.1 mm 4 mps 756 mmHg 93%
    01:00 +19°C° 0.1 mm 4 mps 756 mmHg 94%
    02:00 +18°C° 0 mm 4 mps 755 mmHg 93%
    03:00 +18°C° 0 mm 4 mps 755 mmHg 92%
    04:00 +17°C° 0 mm 4 mps 755 mmHg 92%
    05:00 +17°C° 0 mm 4 mps 756 mmHg 90%
    06:00 +17°C° 0 mm 4 mps 756 mmHg 87%
    07:00 +15°C° 0 mm 5 mps 757 mmHg 85%
    08:00 +19°C° 0 mm 5 mps 757 mmHg 73%
    09:00 +22°C° 0 mm 5 mps 757 mmHg 60%
    10:00 +26°C° 0 mm 5 mps 757 mmHg 48%
    11:00 +27°C° 0 mm 5 mps 757 mmHg 43%
    12:00 +28°C° 0 mm 5 mps 756 mmHg 37%
    13:00 +29°C° 0 mm 5 mps 756 mmHg 32%
    14:00 +29°C° 0 mm 6 mps 755 mmHg 35%
    15:00 +28°C° 0 mm 6 mps 755 mmHg 38%
    16:00 +28°C° 0 mm 6 mps 755 mmHg 41%
    17:00 +26°C° 0 mm 6 mps 755 mmHg 52%
    18:00 +23°C° 0 mm 6 mps 756 mmHg 63%
    19:00 +21°C° 0 mm 6 mps 756 mmHg 74%
    20:00 +20°C° 0 mm 5 mps 757 mmHg 77%
    21:00 +20°C° 0 mm 5 mps 757 mmHg 81%
    22:00 +19°C° 0 mm 5 mps 757 mmHg 84%
    23:00 +19°C° 0 mm 5 mps 757 mmHg 86%

    27 August, Sunday

    Time Temperature Precipitation Wind Pressure Humidity
    00:00 +17°C° 0 mm 5 mps 757 mmHg 88%
    01:00 +17°C° 0 mm 5 mps 757 mmHg 90%
    02:00 +16°C° 0 mm 5 mps 757 mmHg 91%
    03:00 +16°C° 0 mm 5 mps 756 mmHg 91%
    04:00 +17°C° 0 mm 4 mps 756 mmHg 92%
    05:00 +17°C° 0 mm 4 mps 757 mmHg 92%
    06:00 +17°C° 0 mm 4 mps 757 mmHg 92%
    07:00 +17°C° 0 mm 4 mps 758 mmHg 92%
    08:00 +19°C° 0 mm 4 mps 758 mmHg 80%
    09:00 +22°C° 0 mm 5 mps 758 mmHg 67%
    10:00 +26°C° 0 mm 5 mps 758 mmHg 55%
    11:00 +26°C° 0 mm 5 mps 757 mmHg 53%
    12:00 +27°C° 0 mm 5 mps 756 mmHg 52%
    13:00 +27°C° 0 mm 5 mps 756 mmHg 51%
    14:00 +27°C° 0.1 mm 5 mps 755 mmHg 53%
    15:00 +27°C° 0.1 mm 6 mps 755 mmHg 55%
    16:00 +26°C° 0.1 mm 6 mps 755 mmHg 57%
    17:00 +24°C° 0 mm 6 mps 755 mmHg 66%
    18:00 +22°C° 0 mm 5 mps 756 mmHg 75%
    19:00 +20°C° 0 mm 5 mps 756 mmHg 84%
    20:00 +20°C° 0 mm 5 mps 756 mmHg 85%
    21:00 +20°C° 0 mm 5 mps 757 mmHg 87%
    22:00 +19°C° 0 mm 5 mps 757 mmHg 88%
    23:00 +19°C° 0 mm 5 mps 757 mmHg 88%
    Show more